�N����,����,�~����,�C��,���x,�C��,����,���ϕ���,�ő�u�ԕ���,�ő厞����,���˗�,�I�_���x,�n�����x,�ő啗���N��,DTYPE
"16/08/22","00:10",0.0,24.3,86.1,998.9,300.2,0.5,0.8,294.1,0.00,21.9,26.6,"00:00:16",1
"16/08/22","00:20",0.0,24.2,86.4,998.6,293.1,0.3,0.6,311.0,0.00,21.8,26.5,"00:10:32",1
"16/08/22","00:30",0.0,24.3,86.5,998.6,317.3,0.6,1.1,328.4,0.00,21.9,26.5,"00:25:20",1
"16/08/22","00:40",0.0,24.4,86.3,998.6,302.0,0.6,1.0,320.4,0.00,22.0,26.6,"00:34:48",1
"16/08/22","00:50",0.0,24.4,86.3,998.6,297.6,0.6,0.9,320.9,0.00,22.0,26.6,"00:40:56",1
"16/08/22","01:00",0.0,24.5,86.4,998.4,287.5,0.5,0.9,312.6,0.00,22.1,26.3,"00:56:16",1
"16/08/22","01:10",0.0,24.5,86.4,998.2,290.8,0.5,0.9,319.9,0.00,22.1,26.4,"01:08:56",1
"16/08/22","01:20",0.0,24.4,86.3,997.9,294.1,0.5,0.8,350.7,0.00,22.0,26.5,"01:11:12",1
"16/08/22","01:30",0.0,24.8,85.3,998.2,311.2,0.5,1.0,320.3,0.00,22.2,26.3,"01:26:32",1
"16/08/22","01:40",0.0,24.8,84.8,998.2,299.8,0.5,0.8,317.6,0.00,22.1,26.3,"01:38:00",1
"16/08/22","01:50",0.0,24.8,84.7,997.9,311.9,0.5,0.9,327.5,0.00,22.1,26.4,"01:47:28",1
"16/08/22","02:00",0.0,24.8,84.7,997.9,288.4,0.2,0.8,301.7,0.00,22.1,26.3,"01:54:48",1
"16/08/22","02:10",0.0,24.9,84.8,998.2,296.9,0.2,0.9,325.7,0.00,22.2,26.2,"02:08:00",1
"16/08/22","02:20",0.0,24.9,84.7,998.2,323.3,0.7,1.6,351.3,0.00,22.2,26.2,"02:16:16",1
"16/08/22","02:30",0.0,25.0,84.6,997.9,324.5,0.8,2.2,350.1,0.00,22.3,26.2,"02:27:20",1
"16/08/22","02:40",0.0,25.2,84.4,998.2,326.3,0.8,1.9,349.8,0.00,22.4,26.1,"02:32:40",1
"16/08/22","02:50",0.0,25.2,84.2,997.7,318.6,0.7,1.8,341.4,0.00,22.4,26.0,"02:49:04",1
"16/08/22","03:00",0.0,25.4,83.4,997.7,317.8,1.0,2.0,1.2,0.00,22.4,26.2,"02:50:48",1
"16/08/22","03:10",0.0,25.5,82.5,997.7,307.3,0.7,1.3,310.5,0.00,22.3,26.1,"03:02:56",1
"16/08/22","03:20",0.0,25.5,82.5,997.7,317.3,0.8,1.7,340.5,0.00,22.3,26.1,"03:18:48",1
"16/08/22","03:30",0.0,25.6,82.3,997.7,335.8,1.1,2.2,5.3,0.00,22.4,26.2,"03:25:44",1
"16/08/22","03:40",0.0,25.6,82.1,997.4,337.5,1.1,2.9,331.1,0.00,22.4,26.0,"03:36:08",1
"16/08/22","03:50",0.0,25.6,81.8,997.9,335.8,1.0,2.5,359.9,0.00,22.3,26.1,"03:42:08",1
"16/08/22","04:00",0.0,25.7,81.4,997.7,338.7,1.1,3.1,348.2,0.00,22.3,26.2,"03:54:32",1
"16/08/22","04:10",0.0,25.8,80.9,997.7,330.9,1.1,2.0,335.9,0.00,22.3,26.2,"04:03:52",1
"16/08/22","04:20",0.0,25.8,81.1,997.7,326.9,1.0,1.7,334.0,0.00,22.4,26.2,"04:14:56",1
"16/08/22","04:30",0.0,25.7,81.5,997.7,334.9,1.1,2.1,349.3,0.00,22.3,26.2,"04:23:36",1
"16/08/22","04:40",0.0,25.5,81.8,997.7,330.6,1.0,1.9,2.8,0.00,22.2,26.1,"04:30:24",1
"16/08/22","04:50",0.0,25.6,81.6,997.7,330.0,1.0,2.0,337.4,0.00,22.3,26.1,"04:48:48",1
"16/08/22","05:00",0.0,25.6,81.3,997.7,334.9,1.1,3.9,10.6,0.00,22.2,26.0,"04:56:32",1
"16/08/22","05:10",0.0,25.6,81.3,997.7,328.8,1.2,2.5,329.5,0.00,22.2,26.3,"05:00:56",1
"16/08/22","05:20",0.0,25.7,81.1,997.7,343.1,1.2,2.2,352.5,0.00,22.3,26.0,"05:10:32",1
"16/08/22","05:30",0.0,25.7,81.3,997.9,339.8,1.2,2.7,350.8,0.00,22.3,26.0,"05:23:04",1
"16/08/22","05:40",0.0,25.6,81.6,997.7,334.1,0.8,2.0,330.0,0.00,22.3,26.1,"05:31:44",1
"16/08/22","05:50",0.0,25.7,82.0,997.4,336.8,0.7,1.6,343.4,0.00,22.4,26.0,"05:43:52",1
"16/08/22","06:00",0.0,25.9,82.0,997.2,329.9,0.6,1.6,356.8,0.00,22.6,26.1,"05:50:32",1
"16/08/22","06:10",0.0,26.4,81.1,997.0,324.2,0.5,1.6,353.8,0.01,22.9,26.1,"06:09:20",1
"16/08/22","06:20",0.0,26.8,79.1,996.7,305.3,0.5,1.9,338.1,0.00,22.9,26.1,"06:14:24",1
"16/08/22","06:30",0.0,26.5,79.9,996.7,307.1,0.6,2.0,219.0,0.00,22.8,26.1,"06:23:12",1
"16/08/22","06:40",0.0,27.5,77.8,996.3,322.5,0.5,1.1,334.8,0.04,23.3,25.9,"06:36:40",1
"16/08/22","06:50",0.0,28.3,75.2,996.5,315.7,0.5,1.6,355.9,0.05,23.5,26.1,"06:43:20",1
"16/08/22","07:00",0.0,28.9,74.1,996.3,345.8,0.3,1.9,357.8,0.07,23.9,26.2,"06:51:12",1
"16/08/22","07:10",0.0,29.5,72.1,995.8,284.5,0.3,1.2,217.9,0.09,24.0,26.4,"07:02:24",1
"16/08/22","07:20",0.0,29.9,71.0,996.0,214.9,0.5,1.6,211.1,0.11,24.1,26.3,"07:11:44",1
"16/08/22","07:30",0.0,30.4,70.4,996.3,356.5,0.6,3.1,9.4,0.13,24.4,26.4,"07:24:32",1
"16/08/22","07:40",0.0,30.8,68.6,996.5,24.8,0.7,3.3,33.2,0.16,24.4,26.3,"07:38:48",1
"16/08/22","07:50",0.0,30.6,68.1,996.7,17.8,1.5,2.7,36.5,0.15,24.1,26.6,"07:41:28",1
"16/08/22","08:00",0.0,31.0,67.1,997.0,12.3,1.2,3.9,8.3,0.20,24.2,26.5,"07:50:48",1
"16/08/22","08:10",0.0,31.6,65.7,997.0,14.6,0.8,2.9,344.6,0.24,24.4,26.7,"08:00:24",1
"16/08/22","08:20",0.0,31.8,64.8,996.5,5.0,1.5,3.7,1.6,0.29,24.4,26.8,"08:17:12",1
"16/08/22","08:30",0.0,32.2,64.1,996.7,348.6,1.3,4.7,9.7,0.33,24.6,26.9,"08:29:36",1
"16/08/22","08:40",0.0,32.0,64.9,997.4,357.0,1.6,4.2,350.4,0.34,24.6,27.1,"08:38:40",1
"16/08/22","08:50",0.0,32.0,64.6,997.4,3.8,1.7,5.5,352.5,0.32,24.5,27.5,"08:41:44",1
"16/08/22","09:00",0.0,32.2,63.5,997.4,342.8,1.2,3.1,9.7,0.29,24.4,27.5,"08:50:56",1
"16/08/22","09:10",0.0,32.7,62.5,997.7,10.5,1.2,3.1,20.5,0.36,24.6,27.6,"09:03:28",1
"16/08/22","09:20",0.0,32.7,61.5,997.7,4.9,1.3,3.5,31.2,0.35,24.4,27.9,"09:15:36",1
"16/08/22","09:30",0.0,33.2,59.4,997.7,12.1,1.1,3.2,14.0,0.42,24.3,27.9,"09:26:56",1
"16/08/22","09:40",0.0,33.7,59.0,998.2,34.4,1.2,3.2,45.4,0.46,24.6,27.9,"09:35:20",1
"16/08/22","09:50",0.0,33.7,59.1,998.2,30.1,1.3,3.4,42.1,0.40,24.6,28.1,"09:44:32",1
"16/08/22","10:00",0.0,34.5,57.1,998.6,19.5,0.8,2.6,9.8,0.52,24.8,28.3,"09:58:32",1
"16/08/22","10:10",0.0,34.1,55.5,998.4,22.8,1.1,3.7,60.9,0.44,24.0,28.6,"10:05:36",1
"16/08/22","10:20",0.0,34.1,56.7,998.4,342.6,1.0,2.5,344.4,0.39,24.3,28.9,"10:15:52",1
"16/08/22","10:30",0.0,34.5,53.7,998.6,13.8,1.7,4.5,349.3,0.51,23.8,28.9,"10:27:44",1
"16/08/22","10:40",0.0,34.7,54.3,997.9,2.1,2.1,4.9,353.4,0.55,24.2,29.3,"10:30:24",1
"16/08/22","10:50",0.0,34.8,52.2,997.9,2.4,2.2,4.4,358.3,0.57,23.6,29.4,"10:41:12",1
"16/08/22","11:00",0.0,34.4,53.3,997.9,4.3,2.2,4.9,359.0,0.51,23.6,29.5,"10:56:00",1
"16/08/22","11:10",0.0,34.1,52.7,997.4,8.6,2.0,4.3,351.7,0.46,23.1,29.7,"11:08:40",1
"16/08/22","11:20",0.0,33.7,55.0,996.5,359.6,2.0,4.7,359.6,0.34,23.4,29.8,"11:14:00",1
"16/08/22","11:30",0.0,35.5,49.7,996.7,356.2,1.3,4.1,353.8,0.58,23.4,30.1,"11:22:00",1
"16/08/22","11:40",0.0,35.7,49.3,996.7,342.8,1.1,4.2,21.2,0.61,23.5,30.2,"11:32:24",1
"16/08/22","11:50",0.0,36.0,46.9,997.2,337.3,0.8,3.3,324.6,0.60,22.9,30.6,"11:40:16",1
"16/08/22","12:00",0.0,36.0,50.1,997.0,8.5,1.2,4.0,339.9,0.61,24.0,30.6,"11:54:40",1
"16/08/22","12:10",0.0,36.1,47.2,997.0,347.7,1.0,3.3,17.6,0.59,23.1,30.9,"12:09:44",1
"16/08/22","12:20",0.0,36.3,48.0,997.2,335.8,1.0,3.4,40.6,0.60,23.6,31.2,"12:10:24",1
"16/08/22","12:30",0.0,37.0,46.3,997.2,302.5,0.8,3.1,347.6,0.65,23.6,31.4,"12:29:28",1
"16/08/22","12:40",0.0,34.8,50.9,996.7,2.8,2.5,5.2,358.9,0.36,23.2,31.3,"12:33:28",1
"16/08/22","12:50",0.0,33.6,53.7,996.7,7.0,2.2,7.9,345.9,0.25,23.0,31.5,"12:48:24",1
"16/08/22","13:00",0.0,34.0,53.3,996.0,359.4,2.5,5.2,5.2,0.45,23.2,31.6,"12:55:28",1
"16/08/22","13:10",0.0,34.2,52.0,996.3,12.3,2.5,5.9,10.4,0.55,23.0,31.6,"13:06:40",1
"16/08/22","13:20",0.0,35.0,49.4,996.0,357.8,2.3,6.6,3.3,0.54,22.9,31.7,"13:10:56",1
"16/08/22","13:30",0.0,35.1,48.8,996.5,359.0,1.7,4.2,350.4,0.56,22.8,31.9,"13:25:44",1
"16/08/22","13:40",0.0,34.2,52.0,996.7,349.1,1.7,5.2,20.6,0.38,23.0,32.1,"13:31:28",1
"16/08/22","13:50",0.0,34.7,49.7,996.5,276.0,0.7,2.0,232.9,0.44,22.7,32.2,"13:42:56",1
"16/08/22","14:00",0.0,35.1,50.1,997.0,41.1,1.0,3.1,350.9,0.42,23.2,32.2,"13:59:52",1
"16/08/22","14:10",0.0,33.9,51.6,997.0,330.0,1.3,4.2,351.6,0.20,22.6,32.0,"14:00:32",1
"16/08/22","14:20",0.0,34.2,50.5,996.7,327.8,0.8,3.3,336.9,0.27,22.5,32.1,"14:18:08",1
"16/08/22","14:30",0.0,33.7,53.5,996.3,11.1,2.3,5.9,2.6,0.24,23.0,31.7,"14:23:04",1
"16/08/22","14:40",0.0,32.9,54.8,995.8,15.4,1.8,4.9,348.5,0.19,22.6,31.9,"14:30:16",1
"16/08/22","14:50",0.0,32.6,56.6,995.8,347.5,1.2,3.9,349.4,0.09,22.9,31.6,"14:45:36",1
"16/08/22","15:00",0.0,32.3,58.6,995.6,336.3,0.8,4.4,355.1,0.08,23.2,31.6,"14:59:20",1
"16/08/22","15:10",0.0,32.6,57.5,995.6,356.5,1.5,4.1,355.5,0.17,23.2,31.6,"15:09:28",1
"16/08/22","15:20",0.0,32.4,60.1,995.6,274.1,0.5,1.9,44.1,0.14,23.7,31.3,"15:15:20",1
"16/08/22","15:30",0.0,31.0,66.7,995.3,271.8,0.8,2.1,159.6,0.10,24.1,31.2,"15:26:16",1
"16/08/22","15:40",0.0,30.2,70.0,994.8,305.2,1.0,4.0,338.9,0.08,24.2,30.9,"15:32:40",1
"16/08/22","15:50",0.0,29.8,72.4,994.4,287.8,0.7,2.2,303.3,0.08,24.3,30.7,"15:46:40",1
"16/08/22","16:00",0.0,29.9,72.8,994.4,268.5,0.6,2.4,357.4,0.11,24.5,30.8,"15:54:40",1
"16/08/22","16:10",0.0,30.4,71.0,994.6,267.5,0.3,1.7,35.3,0.11,24.6,30.8,"16:06:48",1
"16/08/22","16:20",0.0,30.7,70.5,994.8,15.1,0.5,1.7,25.0,0.12,24.8,30.7,"16:12:08",1
"16/08/22","16:30",0.0,30.7,70.4,995.3,337.3,0.6,2.8,222.8,0.12,24.7,30.6,"16:27:52",1
"16/08/22","16:40",0.0,30.8,68.8,995.6,281.2,0.7,2.5,210.1,0.11,24.4,30.6,"16:32:32",1
"16/08/22","16:50",0.0,31.1,64.1,995.6,350.4,1.7,4.8,27.4,0.09,23.6,30.6,"16:48:00",1
"16/08/22","17:00",0.0,31.0,64.4,995.3,359.0,1.5,4.4,28.9,0.09,23.5,30.4,"16:52:40",1
"16/08/22","17:10",0.0,30.4,63.8,995.6,354.0,1.7,4.3,342.9,0.05,22.8,30.2,"17:08:08",1
"16/08/22","17:20",0.0,29.9,65.9,995.1,357.0,1.8,5.5,351.7,0.03,22.9,30.1,"17:11:44",1
"16/08/22","17:30",0.0,30.1,65.5,995.1,336.7,1.1,3.2,353.9,0.03,23.0,30.1,"17:25:20",1
"16/08/22","17:40",0.0,30.2,64.9,995.1,340.6,1.1,2.6,1.3,0.03,22.9,30.1,"17:35:36",1
"16/08/22","17:50",0.0,29.9,65.6,994.8,354.5,1.8,4.2,356.6,0.03,22.8,29.9,"17:40:16",1
"16/08/22","18:00",0.0,29.6,67.2,995.1,350.0,1.1,3.1,4.7,0.02,22.9,29.9,"17:50:08",1
"16/08/22","18:10",0.0,29.3,68.3,994.8,342.5,1.1,4.1,11.9,0.01,22.9,29.8,"18:05:28",1
"16/08/22","18:20",0.0,29.1,69.3,995.1,338.0,0.6,1.7,11.4,0.00,22.9,29.6,"18:12:56",1
"16/08/22","18:30",0.0,29.0,70.6,994.6,344.4,1.0,3.2,1.5,0.00,23.2,29.5,"18:27:04",1
"16/08/22","18:40",0.0,28.8,71.0,995.3,328.7,0.8,3.1,340.3,0.00,23.1,29.4,"18:36:40",1
"16/08/22","18:50",0.0,28.6,71.4,995.3,346.1,1.0,2.5,345.7,0.00,23.0,29.2,"18:45:20",1
"16/08/22","19:00",0.0,28.3,72.9,996.0,299.8,0.5,2.1,325.1,0.00,23.0,29.3,"18:50:24",1
"16/08/22","19:10",0.0,28.1,74.5,995.6,326.5,0.5,1.3,323.1,0.00,23.2,29.0,"19:03:04",1
"16/08/22","19:20",0.0,27.8,75.9,996.0,318.2,0.6,1.2,345.4,0.00,23.2,28.8,"19:17:04",1
"16/08/22","19:30",0.0,27.5,77.3,996.3,298.8,0.3,0.9,309.7,0.00,23.2,29.1,"19:20:24",1
"16/08/22","19:40",0.0,27.3,77.8,996.5,345.7,0.5,1.2,355.0,0.00,23.1,28.8,"19:32:24",1
"16/08/22","19:50",0.0,27.2,78.6,996.5,313.3,0.6,1.3,335.5,0.00,23.2,28.6,"19:43:20",1
"16/08/22","20:00",0.0,27.2,79.8,997.0,325.6,0.8,1.8,338.1,0.00,23.4,28.9,"19:56:00",1
"16/08/22","20:10",0.0,27.1,80.4,996.5,327.6,1.0,1.9,340.9,0.00,23.5,28.6,"20:08:40",1
"16/08/22","20:20",0.0,27.0,80.6,996.7,321.6,1.0,2.2,346.0,0.00,23.4,28.3,"20:11:36",1
"16/08/22","20:30",0.0,26.9,80.7,996.7,321.6,0.8,1.7,341.3,0.00,23.3,28.4,"20:25:52",1
"16/08/22","20:40",0.0,26.9,81.5,997.0,323.0,0.7,1.4,9.1,0.00,23.5,28.4,"20:30:40",1
"16/08/22","20:50",0.0,26.6,82.0,997.2,292.6,0.6,1.3,227.9,0.00,23.3,28.2,"20:49:28",1
"16/08/22","21:00",0.0,26.6,82.2,997.0,333.9,0.7,1.3,354.2,0.00,23.4,28.2,"20:54:00",1
"16/08/22","21:10",0.0,26.6,82.3,997.2,335.0,0.6,1.2,345.3,0.00,23.4,28.1,"21:03:28",1
"16/08/22","21:20",0.0,26.4,82.9,997.4,327.4,0.6,1.4,335.1,0.00,23.3,28.0,"21:19:44",1
"16/08/22","21:30",0.0,26.3,83.5,997.4,331.8,0.8,1.4,357.6,0.00,23.3,28.0,"21:25:52",1
"16/08/22","21:40",0.0,26.2,84.1,997.4,341.2,1.0,2.0,349.7,0.00,23.3,28.1,"21:35:36",1
"16/08/22","21:50",0.0,26.4,83.9,997.4,329.4,1.0,2.1,355.4,0.00,23.5,27.9,"21:46:16",1
"16/08/22","22:00",0.0,26.6,83.7,997.2,324.0,1.0,1.8,347.2,0.00,23.7,27.9,"21:52:08",1
"16/08/22","22:10",0.0,26.6,83.8,997.7,304.5,0.7,1.7,341.2,0.00,23.7,27.8,"22:04:16",1
"16/08/22","22:20",0.0,26.6,83.9,997.4,307.4,0.7,1.4,323.6,0.00,23.7,27.8,"22:18:40",1
"16/08/22","22:30",0.0,26.5,84.0,997.7,317.8,1.0,1.7,337.0,0.00,23.6,27.8,"22:20:16",1
"16/08/22","22:40",0.0,26.6,84.0,997.7,316.5,1.1,2.1,27.2,0.00,23.7,27.7,"22:39:52",1
"16/08/22","22:50",0.0,26.6,84.0,997.7,323.0,1.1,2.0,346.0,0.00,23.7,27.6,"22:47:12",1
"16/08/22","23:00",0.0,26.5,84.2,997.7,337.3,1.1,2.0,328.2,0.00,23.7,27.6,"22:50:40",1
"16/08/22","23:10",0.0,26.4,84.2,998.2,298.4,0.6,1.2,324.1,0.00,23.6,27.5,"23:02:08",1
"16/08/22","23:20",0.0,26.3,84.0,997.7,288.6,0.6,1.0,324.5,0.00,23.4,27.5,"23:16:16",1
"16/08/22","23:30",0.0,26.3,84.2,997.7,306.6,0.6,1.1,317.7,0.00,23.5,27.3,"23:21:28",1
"16/08/22","23:40",0.0,26.2,84.5,997.9,295.4,0.7,1.9,345.9,0.00,23.4,27.4,"23:30:40",1
"16/08/22","23:50",0.0,26.1,84.9,997.7,308.5,0.5,1.1,343.2,0.00,23.4,27.4,"23:47:28",1
"16/08/22","24:00",0.0,26.0,85.1,997.9,309.8,0.6,1.2,353.0,0.00,23.3,27.2,"23:56:40",1
